{"data":{"norad_id":68232,"intl_designator":"2026-054A","name":"STARLINK-37027","alt_names":[],"object_type":"PAYLOAD","status":"ACTIVE","operator":null,"country":"US","launch_date":"2026-03-17","launch_site_code":"AFETR","launch_vehicle":null,"mission":null,"orbit_class":"UNKNOWN","rcs_meters":null,"size_class":null,"mass_kg":null,"dimensions":null,"purposes":["comms"],"wikipedia_slug":null,"has_3d_model":false,"image_url":null,"decayed_at":null,"tle_current":{"epoch":"2026-09-19T20:36:31.139136Z","epoch_age_seconds":106399,"freshness":"FRESH","line1":"1 68232U 26054A   26262.85869374  .00016207  00000+0  48980-3 0  9993","line2":"2 68232  53.1571 104.7157 0000377 111.1918 248.9125 15.34397765 28864","mean_motion":15.34397765,"eccentricity":3.77e-5,"inclination_deg":53.1571,"raan_deg":104.7157,"arg_perigee_deg":111.1918,"mean_anomaly_deg":248.9125,"bstar":0.0004898,"rev_number":2886,"period_min":93.847894779748,"perigee_km":462.45198317868,"apogee_km":462.96778303367,"semimajor_km":6840.8468831062,"source":"CELESTRAK","updated_at":"2026-09-20T09:00:43.838901Z"}}}